Lid_Strength_Index
-1 -1 -1 -1 -1 -1 -1 -1 -1 -1 -0 -0 -0 -0 -0 0 0 0 0 0 1 1 2 1 1 1 3 5 6 1 -2 -2 -0 3 4 5 6 6 8 7 6 8 7 6 6 6 6
-1 -1 -1 -1 -1 -1 -1 -0 -0 -0 -0 0 -0 -0 -0 0 1 1 1 1 1 2 2 1 2 2 3 8 3 2 3 3 3 4 4 5 6 5 7 7 8 7 7 7 7 7 7
-1 -1 -1 -1 -1 -1 -1 -1 -1 0 1 0 0 0 0 0 1 1 1 1 2 2 2 2 1 3 6 8 4 2 3 4 3 4 5 4 4 6 5 7 5 6 9 8 7 7 7
-1 -1 -1 -1 -1 -1 -1 -1 -0 0 0 1 1 1 1 1 1 1 1 2 3 2 2 1 1 3 8 4 3 4 4 4 3 3 3 2 3 5 6 5 6 8 8 11 7 7 7
-1 -1 -1 -1 -1 -1 -1 -1 -0 0 1 1 1 1 1 1 2 2 2 3 2 3 2 1 3 4 7 3 6 5 4 5 4 3 2 3 3 5 5 8 10 9 12 10 9 7 7
-1 -1 -1 -1 -1 -1 -1 -1 -0 1 1 1 1 2 2 2 2 2 3 2 2 4 5 5 3 7 6 7 6 6 5 5 5 4 4 4 5 8 8 9 14 12 11 10 10 8 7
-1 -1 -1 -1 -1 -1 -1 -0 0 1 1 1 2 2 2 2 2 2 4 4 6 7 7 9 9 9 8 6 5 6 5 5 5 6 8 6 9 11 9 8 8 9 10 11 9 7 8
-1 -1 -1 -1 -1 -1 -1 -0 0 1 2 2 2 2 2 2 3 3 4 7 9 9 12 7 8 7 7 7 8 6 5 7 7 9 7 8 11 7 7 7 9 9 11 11 9 8 9
-1 -1 -1 -1 -1 -1 -1 -1 0 2 2 2 2 2 2 2 3 3 6 7 5 6 11 8 7 7 7 6 7 7 6 6 8 9 9 10 8 7 8 9 10 10 11 11 11 9 9
-1 -1 -1 -1 -1 -1 -1 -1 1 2 2 2 2 2 2 2 3 3 6 4 4 6 11 10 8 7 6 6 8 6 6 7 8 10 9 10 8 8 9 10 9 12 9 9 10 11 14
-1 -0 -0 -0 -0 -1 -0 0 2 2 2 2 2 2 2 2 4 5 4 3 4 6 16 9 8 5 7 8 8 8 6 7 10 10 9 11 10 10 10 9 8 11 8 10 10 12 12
1 1 1 1 2 2 2 3 3 3 3 2 2 2 2 3 3 3 3 2 4 11 15 11 9 10 9 9 8 8 9 7 8 10 10 10 8 8 9 8 8 8 10 10 11 12 16
1 2 2 2 2 3 2 3 3 3 2 2 2 2 2 3 5 3 3 5 11 14 8 11 11 9 10 11 10 10 10 12 12 14 14 11 10 8 8 11 9 10 12 16 17 17 17
2 2 3 3 3 3 3 3 3 3 3 3 3 2 2 3 3 3 4 9 14 10 11 9 10 11 12 11 11 11 12 13 10 11 13 14 16 11 10 10 12 12 11 16 20 19 17
3 3 3 4 4 4 4 4 3 3 3 3 3 3 3 4 4 4 7 13 12 11 11 12 11 13 12 11 12 12 12 12 11 10 14 15 15 10 9 9 10 12 14 9 13 13 16
3 3 3 4 4 4 4 4 4 3 3 3 5 5 6 4 4 5 10 12 11 10 10 11 15 13 14 13 13 12 12 10 10 9 9 11 16 11 10 8 9 10 9 14 13 20 22
4 3 4 4 4 4 4 4 4 4 3 3 5 8 6 4 5 9 13 12 11 9 10 12 13 13 13 13 12 12 12 10 10 9 9 10 12 13 10 11 11 11 12 11 12 14 19
4 4 4 5 5 5 5 5 5 5 5 5 6 11 6 5 11 10 12 11 11 11 9 10 10 11 12 12 13 13 12 10 9 9 11 9 11 15 13 9 8 10 12 12 16 18 16
4 4 4 5 5 5 5 5 5 5 5 5 8 9 6 7 12 12 10 11 10 11 10 11 11 10 10 12 14 11 11 7 8 9 10 9 12 16 14 11 9 11 11 11 12 13 17
5 5 4 5 5 5 5 5 5 5 5 5 8 11 10 9 9 11 12 12 12 9 10 9 10 9 11 12 10 12 11 8 7 7 7 7 11 14 17 14 12 14 12 11 12 16 16
6 6 5 5 5 5 5 6 5 5 5 6 7 10 10 12 11 12 12 13 13 13 10 10 11 11 11 14 12 12 10 10 8 6 7 9 14 11 11 10 10 11 12 12 13 13 16
6 6 6 5 6 6 6 6 6 5 5 6 9 11 10 13 13 14 13 14 14 13 12 12 12 11 11 12 11 12 10 10 10 8 9 8 13 11 13 10 10 12 11 11 11 12 12
6 6 6 6 6 6 6 6 6 6 6 8 7 7 9 12 13 13 13 13 13 12 11 10 11 11 12 10 8 7 7 7 8 9 9 11 12 13 16 11 13 16 13 13 12 12 12
6 6 6 6 6 6 6 6 6 6 6 7 7 8 10 14 12 13 12 11 12 11 12 11 10 11 9 6 6 6 7 7 8 8 7 11 12 13 16 13 20 13 10 11 12 10 10
6 6 6 6 6 6 6 6 6 6 5 6 6 8 9 13 12 12 12 12 11 10 11 10 8 6 5 6 10 12 12 11 10 8 8 8 11 14 17 16 14 12 11 11 12 12 9
7 6 6 6 6 6 6 6 5 5 5 5 5 5 7 12 12 10 11 11 12 11 11 9 6 5 5 8 11 15 16 13 13 12 8 8 10 13 15 19 18 13 9 6 8 14 7
6 7 6 6 6 6 5 5 5 5 5 5 6 4 7 11 9 9 10 10 8 9 10 9 8 8 7 11 14 14 14 10 14 14 14 15 14 15 15 16 14 10 7 6 15 14 7
7 6 6 6 5 5 5 5 5 5 4 5 6 4 6 10 8 7 7 9 8 8 11 9 10 9 10 12 13 12 12 11 12 11 12 14 16 16 15 16 18 7 7 12 9 7 6
6 6 6 6 6 6 5 5 5 5 4 4 6 4 4 7 8 5 5 4 5 6 8 8 9 10 9 11 10 10 12 11 12 15 9 14 12 13 13 13 8 7 7 6 6 7 6